FALCON 9 DEB (49184 NORAD) Tracking and Keplerian Element Data

This shows tracking and keplerian element data for the satellite.

Feedback or suggestion? Click here.




ElementValue
Catalog49184
NameFALCON 9 DEB
Epoch Orbit295
Epoch Day274.95483334
Epoch Year2021
RAAN74.5323
Inclination69.9926
Eccentricity0.0012093
Argument of Perigee139.1084
Mean Anonmoly221.1061
Mean Motion16.48791193
Decay Rate0.12303919
L11 49184U 21082BG 21274.95483334 .12303919 44323-5 15733-3 0 9995
L22 49184 69.9926 74.5323 0012093 139.1084 221.1061 16.48791193 2952



Live tracking and technical data element details for FALCON 9 DEB (NORAD 49184). FALCON 9 DEB can be tracked NOW for your location showing map with azimuth and elevation plus other details from your city location.







IsCatalogInMostPopularTable: catalog: 49184, numindb: 49
Update: records affected: 1



GetName: 49184 FALCON 9 DEB

Hit Count: updated at: Fri, 29 Sep 2023 10:28:42 GMT